User: anonymous   Login
Location: Grums
(59.3529°N, 13.1129°E)
Time: 17:18:03
(UTC+01:00)
Language:

SEEDS - Orbit

View from above orbital plane
View from above orbital plane
View from above satellite
View from above satellite

Ground track
Ground track

The orbit data is extracted from the following two-line orbital elements,

1 32791U 08021J   22336.65281992  .00003062  00000-0  29414-3 0  9995
2 32791  97.6326 307.7735 0012659 357.1398   2.9748 14.93722470792296
Epoch (UTC): 02 December 2022 15:40:03
Eccentricity: 0.0012659
inclination: 97.6326°
perigee height: 577 km
apogee height: 595 km
right ascension of ascending node: 307.7735°
argument of perigee: 357.1398°
revolutions per day: 14.93722470
mean anomaly at epoch: 2.9748°
orbit number at epoch: 79229

The dashed part of the orbit path shows where the satellite is in the earth's shadow,  

DLR